LEMUR-2-TOMHENDERSON (43560 NORAD) Tracking and Keplerian Element Data

This shows tracking and keplerian element data for the satellite.

Feedback or suggestion? Click here.




ElementValue
Catalog43560
NameLEMUR-2-TOMHENDERSON
Epoch Orbit1910
Epoch Day322.52340308
Epoch Year2018
RAAN353.7121
Inclination51.6415
Eccentricity0.0008828
Argument of Perigee49.815
Mean Anonmoly310.3601
Mean Motion15.28295481
Decay Rate2.073E-05
L11 43560U 18046G 18322.52340308 .00002073 00000-0 86816-4 0 9993
L22 43560 51.6415 353.7121 0008828 49.8150 310.3601 15.28295481 19107

Live tracking and technical data element details for LEMUR-2-TOMHENDERSON (NORAD 43560). LEMUR-2-TOMHENDERSON can be tracked NOW for your location showing map with azimuth and elevation plus other details from your city location.

Track the satellite on the map from your city or location and see movement details for azimuth, elevation, latitude, longitude, range, height, and movement on the map or in text.







IsCatalogInMostPopularTable: catalog: 43560, numindb: 35
Update: records affected: 1



GetName: 43560 LEMUR-2-TOMHENDERSON

Hit Count: updated at: Tue, 20 Nov 2018 11:47:48 GMT